EW357LL UKKJ-UMMI

Flight info

Callsign EW357LL
Flight time 3h 3m
Altitude 5000
Route 5031N03025E/VYNOGRADAR 5047N03018E/DYMER 5116N3013E/CHORNOBYL/N130A060 5120N02955E/BURYAKIVKA UKNA ABROK KH22 TROST
Aircraft DA40/L-SDFGRY/SB1

Departure

Time 2026-04-27 14:33
Airport Kyiv Chaika Airfield (UKKJ)

Arrival

Time 2026-04-27 17:36
Airport Lipki Air Base (UMMI)
Time Latitude Longitude Altitude Speed Heading
2026-04-27 13:44 50.43405 30.30098 489 ft 0 kts 24°
2026-04-27 13:49 50.43404 30.30097 489 ft 0 kts 27°
2026-04-27 13:54 50.43403 30.30097 547 ft 0 kts 27°
2026-04-27 13:55 50.43403 30.30096 547 ft 0 kts 27°
2026-04-27 13:59 50.43402 30.30096 547 ft 0 kts 27°
2026-04-27 14:01 50.43402 30.30095 547 ft 0 kts 27°
2026-04-27 14:03 50.43401 30.30095 547 ft 0 kts 28°
2026-04-27 14:07 50.43401 30.30094 547 ft 0 kts 28°
2026-04-27 14:09 50.43400 30.30094 547 ft 0 kts 28°
2026-04-27 14:13 50.43400 30.30093 547 ft 0 kts 27°
2026-04-27 14:14 50.43399 30.30093 547 ft 0 kts 27°
2026-04-27 14:19 50.43401 30.30089 550 ft 3 kts 212°
2026-04-27 14:19 50.43387 30.30090 545 ft 0 kts 177°
2026-04-27 14:22 50.43388 30.30090 547 ft 0 kts 201°
2026-04-27 14:23 50.43354 30.30067 547 ft 10 kts 207°
2026-04-27 14:23 50.43301 30.30058 547 ft 4 kts 145°
2026-04-27 14:24 50.43248 30.30134 547 ft 15 kts 142°
2026-04-27 14:24 50.43196 30.30261 547 ft 17 kts 130°
2026-04-27 14:24 50.43129 30.30426 549 ft 14 kts 112°
2026-04-27 14:24 50.43124 30.30606 548 ft 23 kts 84°
2026-04-27 14:25 50.43041 30.30769 549 ft 18 kts 131°
2026-04-27 14:25 50.42972 30.30898 550 ft 10 kts 197°
2026-04-27 14:25 50.42955 30.30873 550 ft 0 kts 296°
2026-04-27 14:26 50.42955 30.30874 550 ft 0 kts 296°
2026-04-27 14:29 50.42954 30.30874 550 ft 0 kts 296°
2026-04-27 14:30 50.42954 30.30875 550 ft 0 kts 296°
2026-04-27 14:31 50.42980 30.30734 550 ft 25 kts 289°
2026-04-27 14:32 50.43083 30.30248 583 ft 61 kts 287°
2026-04-27 14:32 50.43185 30.29626 841 ft 53 kts 287°
2026-04-27 14:32 50.43265 30.29093 1053 ft 51 kts 286°
2026-04-27 14:32 50.43351 30.28464 1146 ft 65 kts 285°
2026-04-27 14:33 50.43421 30.27720 1318 ft 70 kts 280°
2026-04-27 14:33 50.43486 30.26952 1462 ft 71 kts 293°
2026-04-27 14:33 50.43840 30.26419 1584 ft 77 kts 327°
2026-04-27 14:33 50.44430 30.26287 1544 ft 102 kts 359°
2026-04-27 14:34 50.45065 30.26999 1530 ft 127 kts 43°
2026-04-27 14:34 50.45494 30.28243 1533 ft 132 kts 56°
2026-04-27 14:34 50.45853 30.29564 1530 ft 132 kts 57°
2026-04-27 14:34 50.46210 30.30909 1526 ft 133 kts 57°
2026-04-27 14:35 50.46569 30.32263 1534 ft 136 kts 58°
2026-04-27 14:35 50.46941 30.33623 1529 ft 136 kts 57°
2026-04-27 14:35 50.47308 30.34991 1530 ft 136 kts 58°
2026-04-27 14:35 50.47678 30.36354 1544 ft 134 kts 58°
2026-04-27 14:36 50.48006 30.37616 1866 ft 113 kts 53°
2026-04-27 14:36 50.48296 30.38711 2146 ft 108 kts 53°
2026-04-27 14:36 50.48583 30.39800 2382 ft 107 kts 53°
2026-04-27 14:36 50.48869 30.40883 2592 ft 108 kts 54°
2026-04-27 14:37 50.49154 30.41970 2809 ft 108 kts 54°
2026-04-27 14:37 50.49437 30.43058 3035 ft 107 kts 52°
2026-04-27 14:37 50.49755 30.44105 3275 ft 105 kts 45°
2026-04-27 14:37 50.50161 30.45021 3482 ft 101 kts 36°
2026-04-27 14:38 50.50687 30.45505 3685 ft 79 kts 347°
2026-04-27 14:38 50.51228 30.45522 3896 ft 78 kts 343°
2026-04-27 14:38 50.51766 30.45533 4104 ft 79 kts 344°
2026-04-27 14:38 50.52312 30.45543 4322 ft 79 kts 344°
2026-04-27 14:39 50.52866 30.45553 4544 ft 79 kts 343°
2026-04-27 14:39 50.53230 30.45558 4682 ft 79 kts 343°
2026-04-27 14:39 50.53772 30.45573 4892 ft 78 kts 344°
2026-04-27 14:39 50.54330 30.45578 5010 ft 86 kts 344°
2026-04-27 14:40 50.54965 30.45549 5020 ft 96 kts 344°
2026-04-27 14:40 50.55655 30.45491 5021 ft 102 kts 344°
2026-04-27 14:40 50.56370 30.45424 5022 ft 104 kts 345°
2026-04-27 14:40 50.57068 30.45163 5020 ft 101 kts 326°
2026-04-27 14:41 50.57689 30.44675 5019 ft 102 kts 326°
2026-04-27 14:41 50.58318 30.44178 5016 ft 101 kts 325°
2026-04-27 14:41 50.58949 30.43676 5020 ft 102 kts 325°
2026-04-27 14:41 50.59585 30.43169 5021 ft 103 kts 325°
2026-04-27 14:42 50.60223 30.42660 5017 ft 102 kts 326°
2026-04-27 14:42 50.60856 30.42162 5018 ft 101 kts 325°
2026-04-27 14:42 50.61482 30.41661 5021 ft 101 kts 325°
2026-04-27 14:42 50.62110 30.41161 5022 ft 101 kts 325°
2026-04-27 14:43 50.62736 30.40661 5023 ft 101 kts 325°
2026-04-27 14:43 50.63367 30.40165 5024 ft 102 kts 327°
2026-04-27 14:43 50.64022 30.39716 5025 ft 103 kts 328°
2026-04-27 14:43 50.64678 30.39270 5017 ft 102 kts 328°
2026-04-27 14:44 50.65352 30.38874 5022 ft 105 kts 335°
2026-04-27 14:44 50.66061 30.38570 5022 ft 106 kts 335°
2026-04-27 14:44 50.66779 30.38263 5019 ft 108 kts 335°
2026-04-27 14:44 50.67500 30.37957 5016 ft 107 kts 335°
2026-04-27 14:45 50.68217 30.37652 5018 ft 106 kts 335°
2026-04-27 14:45 50.68932 30.37347 5018 ft 106 kts 335°
2026-04-27 14:45 50.69648 30.37043 5018 ft 106 kts 336°
2026-04-27 14:45 50.70359 30.36741 5017 ft 105 kts 335°
2026-04-27 14:46 50.71067 30.36438 5021 ft 105 kts 335°
2026-04-27 14:46 50.71775 30.36116 5020 ft 106 kts 334°
2026-04-27 14:46 50.72478 30.35797 5020 ft 105 kts 334°
2026-04-27 14:46 50.73181 30.35475 5020 ft 105 kts 334°
2026-04-27 14:47 50.73881 30.35154 5022 ft 105 kts 334°
2026-04-27 14:47 50.74583 30.34837 5019 ft 105 kts 334°
2026-04-27 14:47 50.75274 30.34497 5018 ft 103 kts 331°
2026-04-27 14:47 50.75953 30.34117 5019 ft 104 kts 331°
2026-04-27 14:48 50.76636 30.33731 5019 ft 105 kts 331°
2026-04-27 14:48 50.78003 30.32958 5019 ft 104 kts 331°
2026-04-27 14:48 50.78683 30.32584 5017 ft 107 kts 335°
2026-04-27 14:49 50.79446 30.32460 5018 ft 110 kts 343°
2026-04-27 14:49 50.80212 30.32317 5017 ft 111 kts 342°
2026-04-27 14:49 50.80996 30.32167 5017 ft 111 kts 342°
2026-04-27 14:49 50.81742 30.32026 5016 ft 109 kts 342°
2026-04-27 14:50 50.82495 30.31886 5016 ft 109 kts 342°
2026-04-27 14:50 50.83246 30.31744 5012 ft 108 kts 342°
2026-04-27 14:50 50.83991 30.31605 5010 ft 107 kts 342°
2026-04-27 14:50 50.84728 30.31470 5014 ft 107 kts 342°
2026-04-27 14:51 50.85474 30.31331 5017 ft 108 kts 342°
2026-04-27 14:51 50.86223 30.31188 5011 ft 108 kts 342°
2026-04-27 14:51 50.86970 30.31047 5016 ft 108 kts 342°
2026-04-27 14:51 50.87719 30.30905 5008 ft 108 kts 342°
2026-04-27 14:52 50.88467 30.30762 5010 ft 108 kts 342°
2026-04-27 14:52 50.89209 30.30622 5008 ft 107 kts 342°
2026-04-27 14:52 50.89946 30.30487 5008 ft 106 kts 342°
2026-04-27 14:52 50.90681 30.30353 5009 ft 106 kts 342°
2026-04-27 14:53 50.91416 30.30218 5003 ft 107 kts 342°
2026-04-27 14:53 50.92153 30.30081 5007 ft 106 kts 342°
2026-04-27 14:53 50.92887 30.29949 5012 ft 106 kts 342°
2026-04-27 14:53 50.93624 30.29813 5010 ft 107 kts 342°
2026-04-27 14:54 50.94365 30.29677 5012 ft 107 kts 342°
2026-04-27 14:54 50.95106 30.29541 5012 ft 107 kts 342°
2026-04-27 14:54 50.95843 30.29407 5009 ft 107 kts 342°
2026-04-27 14:54 50.96577 30.29270 5008 ft 106 kts 342°
2026-04-27 14:55 50.97307 30.29137 5014 ft 105 kts 342°
2026-04-27 14:55 50.98036 30.29004 5003 ft 106 kts 342°
2026-04-27 14:55 50.98765 30.28872 5010 ft 105 kts 342°
2026-04-27 14:55 50.99493 30.28741 5008 ft 105 kts 342°
2026-04-27 14:56 51.00220 30.28608 5003 ft 105 kts 342°
2026-04-27 14:56 51.00948 30.28476 5001 ft 105 kts 342°
2026-04-27 14:56 51.01673 30.28343 5004 ft 105 kts 342°
2026-04-27 14:56 51.02403 30.28212 5008 ft 105 kts 342°
2026-04-27 14:57 51.03133 30.28083 5005 ft 106 kts 342°
2026-04-27 14:57 51.03862 30.27949 5002 ft 105 kts 342°
2026-04-27 14:57 51.04591 30.27816 5001 ft 105 kts 343°
2026-04-27 14:57 51.05317 30.27682 5002 ft 105 kts 342°
2026-04-27 14:58 51.06034 30.27547 5005 ft 105 kts 342°
2026-04-27 14:58 51.06756 30.27413 5006 ft 104 kts 342°
2026-04-27 14:58 51.07475 30.27278 5006 ft 104 kts 342°
2026-04-27 14:58 51.08192 30.27146 4997 ft 104 kts 342°
2026-04-27 14:59 51.08911 30.27010 5001 ft 103 kts 342°
2026-04-27 14:59 51.09627 30.26876 4999 ft 104 kts 342°
2026-04-27 14:59 51.10346 30.26741 4998 ft 104 kts 342°
2026-04-27 14:59 51.11068 30.26602 5001 ft 104 kts 342°
2026-04-27 15:00 51.11785 30.26465 4998 ft 103 kts 342°
2026-04-27 15:00 51.12496 30.26331 4997 ft 103 kts 342°
2026-04-27 15:00 51.13214 30.26195 5003 ft 102 kts 342°
2026-04-27 15:00 51.13923 30.26060 5003 ft 103 kts 342°
2026-04-27 15:01 51.14635 30.25927 5003 ft 103 kts 342°
2026-04-27 15:01 51.15348 30.25792 5003 ft 103 kts 342°
2026-04-27 15:01 51.16062 30.25660 5007 ft 104 kts 342°
2026-04-27 15:01 51.16783 30.25522 4995 ft 104 kts 342°
2026-04-27 15:02 51.17505 30.25384 4996 ft 105 kts 342°
2026-04-27 15:02 51.18231 30.25246 4992 ft 106 kts 343°
2026-04-27 15:02 51.18970 30.25126 4998 ft 106 kts 343°
2026-04-27 15:02 51.19695 30.25009 5001 ft 106 kts 343°
2026-04-27 15:03 51.20430 30.24886 4998 ft 105 kts 342°
2026-04-27 15:03 51.21155 30.24752 4994 ft 105 kts 343°
2026-04-27 15:03 51.21878 30.24640 4994 ft 104 kts 343°
2026-04-27 15:03 51.22597 30.24533 5002 ft 104 kts 344°
2026-04-27 15:04 51.23323 30.24427 5003 ft 105 kts 343°
2026-04-27 15:04 51.24051 30.24302 4994 ft 105 kts 340°
2026-04-27 15:04 51.24757 30.24043 5000 ft 103 kts 335°
2026-04-27 15:04 51.25439 30.23687 4987 ft 103 kts 334°
2026-04-27 15:05 51.26114 30.23330 4987 ft 102 kts 333°
2026-04-27 15:05 51.26811 30.23084 4986 ft 108 kts 350°
2026-04-27 15:05 51.27556 30.23102 4997 ft 107 kts 348°
2026-04-27 15:05 51.28306 30.23097 4997 ft 108 kts 348°
2026-04-27 15:06 51.29053 30.23088 4995 ft 107 kts 348°
2026-04-27 15:06 51.29804 30.23081 4992 ft 108 kts 349°
2026-04-27 15:06 51.30553 30.23098 5001 ft 108 kts 349°
2026-04-27 15:06 51.31306 30.23115 4998 ft 109 kts 350°
2026-04-27 15:07 51.32065 30.23129 4979 ft 109 kts 349°
2026-04-27 15:07 51.32821 30.23142 4982 ft 109 kts 349°
2026-04-27 15:07 51.33585 30.23152 4980 ft 109 kts 349°
2026-04-27 15:07 51.34342 30.23162 4984 ft 109 kts 350°
2026-04-27 15:08 51.35097 30.23174 4978 ft 108 kts 349°
2026-04-27 15:08 51.35853 30.23186 4983 ft 109 kts 349°
2026-04-27 15:08 51.36612 30.23195 4978 ft 108 kts 349°
2026-04-27 15:08 51.37362 30.23207 4981 ft 107 kts 349°
2026-04-27 15:09 51.38111 30.23222 4985 ft 109 kts 349°
2026-04-27 15:09 51.38865 30.23240 4980 ft 108 kts 349°
2026-04-27 15:09 51.39613 30.23247 4977 ft 108 kts 349°
2026-04-27 15:09 51.40363 30.23237 4983 ft 108 kts 348°
2026-04-27 15:10 51.41118 30.23227 4983 ft 108 kts 349°
2026-04-27 15:10 51.41795 30.22884 4971 ft 99 kts 314°
2026-04-27 15:10 51.42239 30.22057 4972 ft 98 kts 309°
2026-04-27 15:10 51.42664 30.21213 4973 ft 97 kts 309°
2026-04-27 15:11 51.43086 30.20368 4975 ft 97 kts 309°
2026-04-27 15:11 51.43507 30.19524 4973 ft 97 kts 308°
2026-04-27 15:11 51.43930 30.18677 4974 ft 97 kts 308°
2026-04-27 15:11 51.44351 30.17834 4974 ft 96 kts 308°
2026-04-27 15:12 51.44768 30.17005 5007 ft 94 kts 308°
2026-04-27 15:12 51.45160 30.16209 5090 ft 90 kts 308°
2026-04-27 15:12 51.45539 30.15413 5120 ft 90 kts 307°
2026-04-27 15:12 51.45782 30.14498 5185 ft 96 kts 277°
2026-04-27 15:13 51.45423 30.13504 5238 ft 118 kts 231°
2026-04-27 15:13 51.44727 30.12910 5500 ft 104 kts 228°
2026-04-27 15:13 51.44175 30.12223 5635 ft 100 kts 235°
2026-04-27 15:13 51.43641 30.11508 5752 ft 97 kts 243°
2026-04-27 15:14 51.43285 30.10654 5882 ft 91 kts 253°
2026-04-27 15:14 51.42954 30.09782 5978 ft 94 kts 253°
2026-04-27 15:14 51.42610 30.08827 5983 ft 103 kts 253°
2026-04-27 15:14 51.42372 30.08150 5987 ft 107 kts 253°
2026-04-27 15:15 51.42006 30.07081 5987 ft 110 kts 253°
2026-04-27 15:15 51.41689 30.05976 5986 ft 109 kts 258°
2026-04-27 15:15 51.41395 30.04834 5990 ft 111 kts 258°
2026-04-27 15:15 51.41101 30.03687 5988 ft 111 kts 258°
2026-04-27 15:16 51.40813 30.02562 5987 ft 111 kts 258°
2026-04-27 15:16 51.40520 30.01418 5988 ft 111 kts 258°
2026-04-27 15:16 51.40226 30.00272 5988 ft 112 kts 258°
2026-04-27 15:16 51.39930 29.99127 5989 ft 112 kts 258°
2026-04-27 15:17 51.39631 29.97978 5989 ft 112 kts 258°
2026-04-27 15:17 51.39059 29.97018 5982 ft 127 kts 227°
2026-04-27 15:17 51.38401 29.96127 5986 ft 123 kts 234°
2026-04-27 15:17 51.37751 29.95232 5982 ft 123 kts 233°
2026-04-27 15:18 51.37103 29.94342 5986 ft 123 kts 233°
2026-04-27 15:18 51.36452 29.93451 5984 ft 123 kts 233°
2026-04-27 15:18 51.35805 29.92569 5986 ft 122 kts 233°
2026-04-27 15:18 51.35159 29.91693 5993 ft 121 kts 233°
2026-04-27 15:19 51.34504 29.90833 5998 ft 124 kts 230°
2026-04-27 15:19 51.33796 29.90030 5998 ft 125 kts 229°
2026-04-27 15:19 51.33080 29.89223 5998 ft 126 kts 228°
2026-04-27 15:19 51.32342 29.88445 5997 ft 128 kts 224°
2026-04-27 15:20 51.31513 29.87816 5996 ft 134 kts 214°
2026-04-27 15:20 51.30636 29.87256 5999 ft 134 kts 214°
2026-04-27 15:20 51.29823 29.86603 5995 ft 123 kts 236°
2026-04-27 15:20 51.29526 29.85481 5999 ft 106 kts 275°
2026-04-27 15:21 51.29535 29.84327 5999 ft 105 kts 278°
2026-04-27 15:21 51.29554 29.83158 5997 ft 105 kts 278°
2026-04-27 15:21 51.29575 29.81994 5999 ft 105 kts 278°
2026-04-27 15:21 51.29596 29.80830 5999 ft 105 kts 278°
2026-04-27 15:22 51.29618 29.79665 6001 ft 105 kts 278°
2026-04-27 15:22 51.29621 29.78498 5998 ft 108 kts 268°
2026-04-27 15:22 51.29449 29.77323 5994 ft 107 kts 268°
2026-04-27 15:22 51.29306 29.76169 5997 ft 105 kts 268°
2026-04-27 15:23 51.29160 29.75033 5994 ft 104 kts 267°
2026-04-27 15:23 51.29015 29.73910 5994 ft 103 kts 267°
2026-04-27 15:23 51.28871 29.72794 5995 ft 102 kts 268°
2026-04-27 15:23 51.28721 29.71687 5995 ft 102 kts 267°
2026-04-27 15:24 51.28569 29.70580 5996 ft 102 kts 268°
2026-04-27 15:24 51.28415 29.69476 6002 ft 101 kts 267°
2026-04-27 15:24 51.28265 29.68384 6003 ft 101 kts 268°
2026-04-27 15:24 51.28117 29.67310 5998 ft 98 kts 268°
2026-04-27 15:25 51.27970 29.66259 6001 ft 96 kts 267°
2026-04-27 15:25 51.27826 29.65223 5998 ft 95 kts 268°
2026-04-27 15:25 51.27684 29.64198 5998 ft 94 kts 268°
2026-04-27 15:25 51.27538 29.63179 5998 ft 94 kts 268°
2026-04-27 15:26 51.27390 29.62164 5997 ft 94 kts 268°
2026-04-27 15:26 51.27239 29.61149 5999 ft 94 kts 268°
2026-04-27 15:26 51.27089 29.60136 6004 ft 94 kts 268°
2026-04-27 15:26 51.26938 29.59124 6001 ft 94 kts 267°
2026-04-27 15:27 51.26789 29.58112 6001 ft 93 kts 268°
2026-04-27 15:27 51.26638 29.57102 6002 ft 93 kts 267°
2026-04-27 15:27 51.26489 29.56094 6003 ft 94 kts 267°
2026-04-27 15:27 51.26337 29.55079 6001 ft 94 kts 266°
2026-04-27 15:28 51.26187 29.54068 6001 ft 93 kts 268°
2026-04-27 15:28 51.26038 29.53061 5999 ft 93 kts 267°
2026-04-27 15:28 51.25887 29.52026 6002 ft 93 kts 268°
2026-04-27 15:28 51.25736 29.51009 6000 ft 93 kts 268°
2026-04-27 15:29 51.25590 29.50046 6006 ft 93 kts 267°
2026-04-27 15:29 51.25439 29.49047 6006 ft 93 kts 267°
2026-04-27 15:29 51.25289 29.48047 6005 ft 92 kts 268°
2026-04-27 15:29 51.25140 29.47047 6004 ft 93 kts 267°
2026-04-27 15:30 51.24990 29.46049 6005 ft 93 kts 268°
2026-04-27 15:30 51.24840 29.45042 6004 ft 93 kts 268°
2026-04-27 15:30 51.24688 29.44047 6004 ft 94 kts 267°
2026-04-27 15:30 51.24534 29.43038 6004 ft 94 kts 267°
2026-04-27 15:31 51.24380 29.42028 6004 ft 94 kts 267°
2026-04-27 15:31 51.24225 29.41017 6004 ft 94 kts 267°
2026-04-27 15:31 51.24068 29.40001 6006 ft 94 kts 267°
2026-04-27 15:31 51.23912 29.38990 6006 ft 93 kts 267°
2026-04-27 15:32 51.23757 29.37990 6006 ft 93 kts 267°
2026-04-27 15:32 51.23602 29.36976 6007 ft 93 kts 267°
2026-04-27 15:32 51.23453 29.35969 6004 ft 93 kts 267°
2026-04-27 15:32 51.23305 29.34968 6005 ft 94 kts 268°
2026-04-27 15:33 51.23155 29.33951 6007 ft 94 kts 267°
2026-04-27 15:33 51.23005 29.32945 6003 ft 93 kts 267°
2026-04-27 15:33 51.22855 29.31946 6007 ft 93 kts 267°
2026-04-27 15:33 51.22705 29.30945 6008 ft 93 kts 267°
2026-04-27 15:34 51.22554 29.29944 6006 ft 93 kts 268°
2026-04-27 15:34 51.22398 29.28947 6006 ft 92 kts 267°
2026-04-27 15:34 51.22240 29.27954 6011 ft 93 kts 268°
2026-04-27 15:34 51.22081 29.26949 6009 ft 93 kts 267°
2026-04-27 15:35 51.21969 29.25944 6013 ft 90 kts 281°
2026-04-27 15:35 51.22029 29.24951 6015 ft 90 kts 283°
2026-04-27 15:35 51.22096 29.23954 6013 ft 91 kts 283°
2026-04-27 15:35 51.22164 29.22955 6008 ft 90 kts 283°
2026-04-27 15:36 51.22232 29.21964 6011 ft 90 kts 283°
2026-04-27 15:36 51.22303 29.20970 6011 ft 90 kts 283°
2026-04-27 15:36 51.22376 29.19973 6011 ft 90 kts 283°
2026-04-27 15:36 51.22449 29.18978 6009 ft 90 kts 282°
2026-04-27 15:37 51.22497 29.17977 6006 ft 91 kts 279°
2026-04-27 15:37 51.22504 29.16967 6015 ft 91 kts 278°
2026-04-27 15:37 51.22506 29.15963 6009 ft 90 kts 278°
2026-04-27 15:37 51.22516 29.14969 6011 ft 89 kts 279°
2026-04-27 15:38 51.22519 29.13978 6015 ft 90 kts 278°
2026-04-27 15:38 51.22519 29.12963 6012 ft 90 kts 278°
2026-04-27 15:38 51.22520 29.11971 6013 ft 90 kts 278°
2026-04-27 15:38 51.22522 29.10972 6013 ft 90 kts 278°
2026-04-27 15:39 51.22682 29.10067 6019 ft 87 kts 311°
2026-04-27 15:39 51.23281 29.09759 6028 ft 96 kts 346°
2026-04-27 15:39 51.23946 29.09742 6027 ft 97 kts 347°
2026-04-27 15:39 51.24621 29.09727 6022 ft 97 kts 347°
2026-04-27 15:40 51.25296 29.09714 6025 ft 98 kts 347°
2026-04-27 15:40 51.25974 29.09680 6022 ft 97 kts 346°
2026-04-27 15:40 51.26649 29.09622 6023 ft 97 kts 345°
2026-04-27 15:40 51.27321 29.09561 6025 ft 97 kts 345°
2026-04-27 15:41 51.27994 29.09502 6028 ft 97 kts 345°
2026-04-27 15:41 51.28667 29.09444 6028 ft 97 kts 345°
2026-04-27 15:41 51.29342 29.09386 6022 ft 97 kts 346°
2026-04-27 15:41 51.30032 29.09324 6029 ft 96 kts 345°
2026-04-27 15:42 51.30683 29.09265 6023 ft 97 kts 345°
2026-04-27 15:42 51.31357 29.09204 6024 ft 97 kts 345°
2026-04-27 15:42 51.32029 29.09144 6020 ft 97 kts 346°
2026-04-27 15:42 51.32699 29.09081 6024 ft 96 kts 345°
2026-04-27 15:43 51.33378 29.09018 6019 ft 96 kts 345°
2026-04-27 15:43 51.34049 29.08954 6026 ft 97 kts 345°
2026-04-27 15:43 51.34724 29.08888 6025 ft 97 kts 346°
2026-04-27 15:43 51.35402 29.08819 6026 ft 98 kts 345°
2026-04-27 15:44 51.36081 29.08746 6023 ft 98 kts 346°
2026-04-27 15:44 51.36752 29.08676 6023 ft 97 kts 345°
2026-04-27 15:44 51.37426 29.08605 6022 ft 96 kts 345°
2026-04-27 15:44 51.38092 29.08537 6024 ft 96 kts 345°
2026-04-27 15:45 51.38759 29.08470 6023 ft 96 kts 345°
2026-04-27 15:45 51.39204 29.08425 6024 ft 96 kts 345°
2026-04-27 15:45 51.40096 29.08328 6024 ft 96 kts 345°
2026-04-27 15:45 51.40760 29.08258 6019 ft 96 kts 345°
2026-04-27 15:46 51.41429 29.08184 6019 ft 97 kts 345°
2026-04-27 15:46 51.41883 29.08137 6018 ft 96 kts 346°
2026-04-27 15:46 51.42553 29.08068 6018 ft 96 kts 345°
2026-04-27 15:46 51.43221 29.07999 6015 ft 96 kts 346°
2026-04-27 15:47 51.43879 29.07933 6018 ft 96 kts 346°
2026-04-27 15:47 51.44550 29.07865 6015 ft 95 kts 345°
2026-04-27 15:47 51.45196 29.07741 6018 ft 93 kts 341°
2026-04-27 15:47 51.45836 29.07593 6017 ft 93 kts 341°
2026-04-27 15:48 51.46474 29.07447 6022 ft 93 kts 341°
2026-04-27 15:48 51.47106 29.07302 6015 ft 93 kts 341°
2026-04-27 15:48 51.47751 29.07154 6019 ft 93 kts 341°
2026-04-27 15:49 51.49027 29.06861 6022 ft 93 kts 341°
2026-04-27 15:49 51.49670 29.06710 6015 ft 93 kts 342°
2026-04-27 15:49 51.50311 29.06559 6014 ft 93 kts 342°
2026-04-27 15:49 51.50952 29.06408 6017 ft 93 kts 342°
2026-04-27 15:50 51.51592 29.06252 6020 ft 94 kts 341°
2026-04-27 15:50 51.52245 29.06092 6018 ft 94 kts 341°
2026-04-27 15:50 51.52891 29.05935 6016 ft 94 kts 342°
2026-04-27 15:50 51.53540 29.05774 6013 ft 95 kts 341°
2026-04-27 15:51 51.54186 29.05606 6013 ft 93 kts 340°
2026-04-27 15:51 51.54823 29.05402 6013 ft 93 kts 340°
2026-04-27 15:51 51.55455 29.05196 6010 ft 92 kts 340°
2026-04-27 15:51 51.56086 29.04990 6012 ft 92 kts 339°
2026-04-27 15:52 51.56714 29.04785 6015 ft 92 kts 340°
2026-04-27 15:52 51.57334 29.04582 6006 ft 92 kts 340°
2026-04-27 15:52 51.57967 29.04374 6013 ft 92 kts 340°
2026-04-27 15:52 51.58593 29.04167 6011 ft 93 kts 340°
2026-04-27 15:53 51.59247 29.03944 6014 ft 99 kts 340°
2026-04-27 15:53 51.59736 29.03788 6015 ft 102 kts 343°
2026-04-27 15:53 51.60481 29.04050 6015 ft 114 kts
2026-04-27 15:53 51.61241 29.04440 6013 ft 115 kts
2026-04-27 15:54 51.62008 29.04826 6014 ft 116 kts
2026-04-27 15:54 51.62778 29.05215 6016 ft 116 kts
2026-04-27 15:54 51.63548 29.05607 6016 ft 116 kts
2026-04-27 15:54 51.64320 29.06000 6012 ft 116 kts
2026-04-27 15:55 51.65088 29.06388 6013 ft 116 kts
2026-04-27 15:55 51.65855 29.06776 6011 ft 115 kts
2026-04-27 15:55 51.66623 29.07160 6012 ft 116 kts
2026-04-27 15:55 51.67391 29.07545 6010 ft 115 kts
2026-04-27 15:56 51.68155 29.07928 6007 ft 115 kts
2026-04-27 15:56 51.68934 29.08316 6038 ft 113 kts
2026-04-27 15:56 51.69672 29.08696 6103 ft 112 kts
2026-04-27 15:56 51.70421 29.09084 6103 ft 114 kts
2026-04-27 15:57 51.71181 29.09477 6105 ft 115 kts
2026-04-27 15:57 51.71950 29.09870 6103 ft 116 kts
2026-04-27 15:57 51.72732 29.10260 6110 ft 116 kts
2026-04-27 15:57 51.73505 29.10646 6110 ft 116 kts
2026-04-27 15:58 51.74278 29.11031 6110 ft 116 kts
2026-04-27 15:58 51.75050 29.11422 6109 ft 116 kts
2026-04-27 15:58 51.75821 29.11809 6105 ft 117 kts
2026-04-27 15:58 51.76596 29.12214 6107 ft 117 kts
2026-04-27 15:59 51.77372 29.12624 6107 ft 117 kts
2026-04-27 15:59 51.78142 29.13038 6107 ft 116 kts
2026-04-27 15:59 51.78909 29.13455 6108 ft 116 kts
2026-04-27 15:59 51.79674 29.13871 6107 ft 116 kts
2026-04-27 16:00 51.80437 29.14286 6107 ft 116 kts
2026-04-27 16:00 51.80948 29.14564 6108 ft 116 kts
2026-04-27 16:00 51.81977 29.15121 6108 ft 116 kts
2026-04-27 16:00 51.82739 29.15532 6108 ft 117 kts
2026-04-27 16:01 51.83510 29.15943 6108 ft 117 kts
2026-04-27 16:01 51.84285 29.16358 6105 ft 117 kts
2026-04-27 16:01 51.85060 29.16774 6110 ft 117 kts
2026-04-27 16:01 51.85834 29.17188 6105 ft 117 kts
2026-04-27 16:02 51.86610 29.17599 6109 ft 117 kts
2026-04-27 16:02 51.87384 29.17981 6102 ft 116 kts
2026-04-27 16:02 51.88157 29.18343 6105 ft 116 kts
2026-04-27 16:02 51.88931 29.18702 6104 ft 116 kts
2026-04-27 16:03 51.89703 29.19058 6100 ft 115 kts
2026-04-27 16:03 51.90470 29.19391 6101 ft 113 kts
2026-04-27 16:03 51.91235 29.19723 6107 ft 114 kts
2026-04-27 16:03 51.92000 29.20054 6095 ft 113 kts
2026-04-27 16:04 51.92756 29.20430 6107 ft 114 kts
2026-04-27 16:04 51.93508 29.20828 6088 ft 114 kts
2026-04-27 16:04 51.94272 29.21191 6096 ft 112 kts
2026-04-27 16:04 51.95027 29.21532 6091 ft 112 kts
2026-04-27 16:05 51.95784 29.21830 6090 ft 111 kts
2026-04-27 16:05 51.96543 29.22062 6093 ft 111 kts 359°
2026-04-27 16:05 51.97264 29.22263 6105 ft 111 kts 358°
2026-04-27 16:05 51.98027 29.22472 6102 ft 111 kts 359°
2026-04-27 16:06 51.98792 29.22677 6102 ft 112 kts 359°
2026-04-27 16:06 51.99560 29.22867 6106 ft 111 kts 358°
2026-04-27 16:06 52.00332 29.23044 6108 ft 112 kts 358°
2026-04-27 16:06 52.01098 29.23250 6098 ft 113 kts 359°
2026-04-27 16:07 52.01870 29.23477 6105 ft 113 kts 359°
2026-04-27 16:07 52.02641 29.23705 6099 ft 112 kts 359°
2026-04-27 16:07 52.03412 29.23933 6104 ft 112 kts 359°
2026-04-27 16:07 52.04169 29.24022 6101 ft 106 kts 345°
2026-04-27 16:08 52.04884 29.23835 6102 ft 105 kts 342°
2026-04-27 16:08 52.05609 29.23630 6103 ft 106 kts 342°
2026-04-27 16:08 52.06341 29.23421 6100 ft 108 kts 342°
2026-04-27 16:08 52.07077 29.23210 6101 ft 107 kts 342°
2026-04-27 16:09 52.07811 29.23000 6101 ft 107 kts 342°
2026-04-27 16:09 52.09256 29.22483 6101 ft 105 kts 336°
2026-04-27 16:09 52.09961 29.22123 6105 ft 105 kts 336°
2026-04-27 16:10 52.11358 29.21404 6103 ft 105 kts 336°
2026-04-27 16:10 52.12763 29.20691 6103 ft 105 kts 337°
2026-04-27 16:11 52.13472 29.20353 6101 ft 105 kts 337°
2026-04-27 16:11 52.14872 29.19683 6101 ft 105 kts 338°
2026-04-27 16:12 52.16258 29.19014 6098 ft 104 kts 338°
2026-04-27 16:12 52.16952 29.18676 6095 ft 104 kts 337°
2026-04-27 16:12 52.18336 29.18004 6098 ft 104 kts 337°
2026-04-27 16:13 52.19036 29.17665 6097 ft 104 kts 337°
2026-04-27 16:13 52.20416 29.16994 6100 ft 103 kts 337°
2026-04-27 16:13 52.21100 29.16662 6094 ft 103 kts 337°
2026-04-27 16:14 52.22468 29.16000 6094 ft 102 kts 337°
2026-04-27 16:14 52.23598 29.15451 6092 ft 102 kts 337°
2026-04-27 16:15 52.24954 29.14796 6090 ft 102 kts 337°
2026-04-27 16:15 52.26307 29.14120 6090 ft 101 kts 337°
2026-04-27 16:16 52.27650 29.13463 6089 ft 102 kts 337°
2026-04-27 16:16 52.29026 29.12786 6091 ft 105 kts 337°
2026-04-27 16:17 52.30423 29.12090 6090 ft 106 kts 337°
2026-04-27 16:17 52.31826 29.11387 6093 ft 105 kts 337°
2026-04-27 16:18 52.33228 29.10686 6094 ft 106 kts 337°
2026-04-27 16:18 52.34639 29.09981 6088 ft 106 kts 337°
2026-04-27 16:19 52.35345 29.09630 6093 ft 106 kts 337°
2026-04-27 16:19 52.36054 29.09279 6096 ft 106 kts 337°
2026-04-27 16:20 52.38177 29.08222 6089 ft 107 kts 337°
2026-04-27 16:20 52.38887 29.07869 6090 ft 106 kts 337°
2026-04-27 16:20 52.40301 29.07169 6089 ft 107 kts 337°
2026-04-27 16:21 52.41012 29.06815 6093 ft 107 kts 337°
2026-04-27 16:21 52.43162 29.05840 6090 ft 107 kts 338°
2026-04-27 16:22 52.43879 29.05508 6091 ft 107 kts 338°
2026-04-27 16:22 52.45316 29.04842 6088 ft 107 kts 339°
2026-04-27 16:22 52.46032 29.04510 6086 ft 107 kts 338°
2026-04-27 16:23 52.46749 29.04178 6082 ft 107 kts 338°
2026-04-27 16:23 52.48179 29.03517 6085 ft 107 kts 338°
2026-04-27 16:23 52.48895 29.03183 6085 ft 107 kts 338°
2026-04-27 16:24 52.49611 29.02849 6085 ft 107 kts 338°
2026-04-27 16:24 52.51040 29.02188 6094 ft 107 kts 338°
2026-04-27 16:25 52.52467 29.01521 6085 ft 107 kts 339°
2026-04-27 16:25 52.53907 29.00844 6089 ft 107 kts 338°
2026-04-27 16:26 52.55335 29.00167 6085 ft 107 kts 338°
2026-04-27 16:26 52.56761 28.99485 6088 ft 106 kts 338°
2026-04-27 16:27 52.58181 28.98802 6079 ft 106 kts 338°
2026-04-27 16:27 52.60305 28.97778 6079 ft 105 kts 338°
2026-04-27 16:28 52.61725 28.97088 6047 ft 106 kts 338°
2026-04-27 16:28 52.63142 28.96396 6063 ft 106 kts 338°
2026-04-27 16:29 52.65258 28.95352 6064 ft 106 kts 338°
2026-04-27 16:30 52.66668 28.94654 6062 ft 106 kts 338°
2026-04-27 16:30 52.68072 28.93957 6065 ft 106 kts 338°
2026-04-27 16:31 52.70179 28.92908 6064 ft 105 kts 338°
2026-04-27 16:31 52.71583 28.92203 6061 ft 106 kts 339°
2026-04-27 16:32 52.72986 28.91492 6060 ft 106 kts 338°
2026-04-27 16:32 52.73703 28.91129 6065 ft 106 kts 338°
2026-04-27 16:33 52.75111 28.90408 6059 ft 106 kts 338°
2026-04-27 16:33 52.75813 28.90052 6060 ft 106 kts 339°
2026-04-27 16:33 52.76516 28.89693 6055 ft 106 kts 338°
2026-04-27 16:33 52.77217 28.89337 6050 ft 105 kts 339°
2026-04-27 16:34 52.77917 28.88978 6058 ft 105 kts 338°
2026-04-27 16:34 52.78616 28.88621 6053 ft 105 kts 339°
2026-04-27 16:34 52.79316 28.88265 6051 ft 105 kts 338°
2026-04-27 16:34 52.80013 28.87908 6049 ft 105 kts 338°
2026-04-27 16:35 52.80686 28.87565 6058 ft 105 kts 339°
2026-04-27 16:35 52.81393 28.87204 6052 ft 105 kts 338°
2026-04-27 16:35 52.82783 28.86495 6054 ft 105 kts 338°
2026-04-27 16:36 52.83478 28.86139 6052 ft 105 kts 339°
2026-04-27 16:36 52.84177 28.85779 6051 ft 105 kts 338°
2026-04-27 16:36 52.84875 28.85419 6057 ft 105 kts 339°
2026-04-27 16:36 52.85581 28.85051 6052 ft 105 kts 338°
2026-04-27 16:37 52.86277 28.84688 6056 ft 105 kts 338°
2026-04-27 16:37 52.86974 28.84326 6052 ft 105 kts 339°
2026-04-27 16:37 52.87670 28.83961 6054 ft 105 kts 339°
2026-04-27 16:37 52.88368 28.83595 6052 ft 104 kts 339°
2026-04-27 16:38 52.89061 28.83231 6055 ft 105 kts 339°
2026-04-27 16:38 52.89749 28.82871 6052 ft 103 kts 339°
2026-04-27 16:38 52.90431 28.82513 6055 ft 102 kts 339°
2026-04-27 16:38 52.91109 28.82155 6055 ft 102 kts 338°
2026-04-27 16:39 52.91786 28.81795 6055 ft 102 kts 339°
2026-04-27 16:39 52.92463 28.81437 6055 ft 102 kts 339°
2026-04-27 16:39 52.93140 28.81078 6052 ft 103 kts 339°
2026-04-27 16:39 52.93827 28.80710 6048 ft 102 kts 338°
2026-04-27 16:40 52.94506 28.80347 6052 ft 102 kts 339°
2026-04-27 16:40 52.95184 28.79981 6050 ft 102 kts 339°
2026-04-27 16:40 52.95861 28.79618 6053 ft 102 kts 338°
2026-04-27 16:40 52.96538 28.79253 6054 ft 102 kts 339°
2026-04-27 16:41 52.97204 28.78891 6051 ft 102 kts 339°
2026-04-27 16:41 52.97906 28.78682 6052 ft 103 kts 348°
2026-04-27 16:41 52.98629 28.78572 6049 ft 104 kts 348°
2026-04-27 16:41 52.99352 28.78468 6049 ft 103 kts 348°
2026-04-27 16:42 53.00061 28.78365 6045 ft 103 kts 348°
2026-04-27 16:42 53.00771 28.78257 6047 ft 102 kts 348°
2026-04-27 16:42 53.01477 28.78157 6053 ft 101 kts 349°
2026-04-27 16:42 53.01951 28.78089 5938 ft 104 kts 349°
2026-04-27 16:43 53.02665 28.77986 5776 ft 102 kts 349°
2026-04-27 16:43 53.03379 28.77886 5611 ft 101 kts 349°
2026-04-27 16:43 53.04072 28.77789 5457 ft 101 kts 349°
2026-04-27 16:43 53.04782 28.77688 5297 ft 101 kts 349°
2026-04-27 16:44 53.05483 28.77588 5141 ft 102 kts 348°
2026-04-27 16:44 53.06203 28.77477 5044 ft 105 kts 348°
2026-04-27 16:44 53.06920 28.77368 5045 ft 101 kts 348°
2026-04-27 16:44 53.07623 28.77266 5047 ft 99 kts 348°
2026-04-27 16:45 53.08302 28.77118 5044 ft 98 kts 346°
2026-04-27 16:45 53.08977 28.76942 5050 ft 98 kts 346°
2026-04-27 16:45 53.09596 28.76533 5046 ft 97 kts 332°
2026-04-27 16:45 53.10198 28.76015 5048 ft 97 kts 332°
2026-04-27 16:46 53.10801 28.75494 5047 ft 98 kts 332°
2026-04-27 16:46 53.11402 28.74973 5045 ft 98 kts 332°
2026-04-27 16:46 53.12005 28.74450 5054 ft 98 kts 332°
2026-04-27 16:46 53.12610 28.73924 5044 ft 98 kts 332°
2026-04-27 16:47 53.13217 28.73396 5041 ft 98 kts 332°
2026-04-27 16:47 53.13822 28.72867 5047 ft 99 kts 332°
2026-04-27 16:47 53.14443 28.72328 4943 ft 105 kts 332°
2026-04-27 16:47 53.15093 28.71761 4761 ft 105 kts 332°
2026-04-27 16:48 53.15743 28.71198 4574 ft 105 kts 332°
2026-04-27 16:48 53.16397 28.70639 4383 ft 106 kts 332°
2026-04-27 16:48 53.17054 28.70083 4203 ft 106 kts 332°
2026-04-27 16:49 53.18375 28.68981 3828 ft 106 kts 332°
2026-04-27 16:49 53.19039 28.68436 3643 ft 107 kts 332°
2026-04-27 16:49 53.19707 28.67897 3453 ft 104 kts 332°
2026-04-27 16:49 53.20362 28.67373 3271 ft 104 kts 332°
2026-04-27 16:50 53.21015 28.66857 3086 ft 103 kts 332°
2026-04-27 16:50 53.21653 28.66402 3036 ft 95 kts 335°
2026-04-27 16:50 53.22239 28.66029 3032 ft 86 kts 335°
2026-04-27 16:50 53.22788 28.65691 3033 ft 84 kts 335°
2026-04-27 16:51 53.23324 28.65367 3037 ft 81 kts 334°
2026-04-27 16:51 53.23851 28.65052 3030 ft 80 kts 335°
2026-04-27 16:51 53.24397 28.64866 3036 ft 79 kts 342°
2026-04-27 16:51 53.24940 28.64701 3035 ft 79 kts 341°
2026-04-27 16:52 53.25483 28.64534 3035 ft 80 kts 341°
2026-04-27 16:52 53.26032 28.64368 3032 ft 80 kts 342°
2026-04-27 16:52 53.26573 28.64203 3032 ft 78 kts 341°
2026-04-27 16:52 53.27109 28.64043 3034 ft 78 kts 341°
2026-04-27 16:53 53.27656 28.63879 3043 ft 80 kts 342°
2026-04-27 16:53 53.28212 28.63710 3036 ft 81 kts 342°
2026-04-27 16:53 53.28771 28.63541 3047 ft 82 kts 342°
2026-04-27 16:53 53.29331 28.63370 3041 ft 84 kts 342°
2026-04-27 16:54 53.29911 28.63220 3044 ft 86 kts 347°
2026-04-27 16:54 53.30520 28.63508 3042 ft 92 kts
2026-04-27 16:54 53.31135 28.63752 3041 ft 88 kts
2026-04-27 16:54 53.31555 28.63897 3042 ft 87 kts 360°
2026-04-27 16:55 53.32055 28.64068 3042 ft 87 kts 360°
2026-04-27 16:55 53.32641 28.64269 3041 ft 87 kts 360°
2026-04-27 16:55 53.33234 28.64469 3041 ft 86 kts 360°
2026-04-27 16:55 53.33821 28.64671 3044 ft 86 kts 360°
2026-04-27 16:56 53.34415 28.64876 3035 ft 86 kts 360°
2026-04-27 16:56 53.34996 28.65072 3032 ft 84 kts 360°
2026-04-27 16:56 53.35563 28.65268 3040 ft 84 kts 359°
2026-04-27 16:56 53.36147 28.65464 3042 ft 87 kts 360°
2026-04-27 16:57 53.36751 28.65664 3034 ft 88 kts 360°
2026-04-27 16:57 53.37352 28.65857 3032 ft 87 kts 360°
2026-04-27 16:57 53.37947 28.66055 3031 ft 87 kts 359°
2026-04-27 16:57 53.38523 28.66268 3031 ft 83 kts 360°
2026-04-27 16:58 53.39091 28.66491 3032 ft 84 kts
2026-04-27 16:58 53.39660 28.66705 3038 ft 84 kts 359°
2026-04-27 16:58 53.40245 28.66916 3043 ft 90 kts 359°
2026-04-27 16:58 53.40900 28.67119 3033 ft 101 kts 360°
2026-04-27 16:59 53.41608 28.67317 3035 ft 105 kts 360°
2026-04-27 16:59 53.42341 28.67515 3041 ft 107 kts 359°
2026-04-27 16:59 53.43087 28.67714 3035 ft 109 kts 359°
2026-04-27 16:59 53.43844 28.67913 3035 ft 110 kts 360°
2026-04-27 17:00 53.45121 28.68229 3034 ft 112 kts 359°
2026-04-27 17:00 53.46156 28.68514 3039 ft 114 kts
2026-04-27 17:00 53.46923 28.68593 3027 ft 108 kts 338°
2026-04-27 17:01 53.47602 28.68107 3028 ft 106 kts 333°
2026-04-27 17:01 53.48272 28.67595 3026 ft 106 kts 332°
2026-04-27 17:01 53.48937 28.67058 3035 ft 106 kts 332°
2026-04-27 17:01 53.49601 28.66516 3029 ft 106 kts 332°
2026-04-27 17:02 53.50263 28.65977 3032 ft 106 kts 332°
2026-04-27 17:02 53.50923 28.65438 3030 ft 105 kts 332°
2026-04-27 17:02 53.51502 28.64718 3030 ft 105 kts 312°
2026-04-27 17:02 53.51921 28.63750 3026 ft 104 kts 310°
2026-04-27 17:03 53.52344 28.62745 3024 ft 103 kts 310°
2026-04-27 17:03 53.52754 28.61761 3027 ft 102 kts 310°
2026-04-27 17:03 53.53165 28.60775 3029 ft 104 kts 310°
2026-04-27 17:03 53.53582 28.59783 3031 ft 103 kts 310°
2026-04-27 17:04 53.54030 28.58838 3031 ft 103 kts 313°
2026-04-27 17:04 53.54483 28.57904 3032 ft 103 kts 313°
2026-04-27 17:04 53.54936 28.56968 3027 ft 104 kts 313°
2026-04-27 17:04 53.55388 28.56034 3034 ft 103 kts 313°
2026-04-27 17:05 53.55841 28.55097 3033 ft 103 kts 313°
2026-04-27 17:05 53.56292 28.54167 3031 ft 103 kts 313°
2026-04-27 17:05 53.56741 28.53238 3038 ft 103 kts 313°
2026-04-27 17:05 53.57040 28.52622 3038 ft 103 kts 313°
2026-04-27 17:06 53.57651 28.51366 3033 ft 104 kts 313°
2026-04-27 17:06 53.58106 28.50427 3036 ft 103 kts 313°
2026-04-27 17:06 53.58565 28.49477 3031 ft 103 kts 313°
2026-04-27 17:06 53.59020 28.48536 3030 ft 103 kts 313°
2026-04-27 17:07 53.59471 28.47595 3031 ft 104 kts 313°
2026-04-27 17:07 53.59923 28.46648 3033 ft 103 kts 313°
2026-04-27 17:07 53.60235 28.45990 3025 ft 103 kts 313°
2026-04-27 17:07 53.60533 28.45361 3026 ft 104 kts 313°
2026-04-27 17:08 53.60938 28.44503 3024 ft 104 kts 313°
2026-04-27 17:08 53.61384 28.43562 3025 ft 104 kts 313°
2026-04-27 17:08 53.61840 28.42603 3024 ft 104 kts 313°
2026-04-27 17:08 53.62292 28.41650 3028 ft 104 kts 313°
2026-04-27 17:09 53.62745 28.40691 3029 ft 105 kts 313°
2026-04-27 17:09 53.63200 28.39725 3031 ft 105 kts 313°
2026-04-27 17:09 53.63655 28.38753 3030 ft 105 kts 313°
2026-04-27 17:09 53.64105 28.37781 3027 ft 105 kts 313°
2026-04-27 17:10 53.64554 28.36815 3027 ft 104 kts 313°
2026-04-27 17:10 53.64997 28.35851 3029 ft 104 kts 313°
2026-04-27 17:10 53.65441 28.34891 3032 ft 103 kts 313°
2026-04-27 17:10 53.65884 28.33930 3031 ft 104 kts 313°
2026-04-27 17:11 53.66325 28.32974 3029 ft 103 kts 313°
2026-04-27 17:11 53.67197 28.31083 3029 ft 101 kts 313°
2026-04-27 17:11 53.67627 28.30154 3038 ft 100 kts 313°
2026-04-27 17:12 53.68485 28.28303 3034 ft 100 kts 313°
2026-04-27 17:12 53.68915 28.27377 3038 ft 100 kts 313°
2026-04-27 17:12 53.69324 28.26415 3033 ft 103 kts 302°
2026-04-27 17:13 53.69492 28.25202 3033 ft 108 kts 290°
2026-04-27 17:13 53.69709 28.24016 3036 ft 105 kts 297°
2026-04-27 17:13 53.69950 28.22848 3033 ft 106 kts 297°
2026-04-27 17:13 53.70189 28.21662 3034 ft 107 kts 296°
2026-04-27 17:14 53.70353 28.20854 3033 ft 107 kts 297°
2026-04-27 17:14 53.70594 28.19662 3039 ft 108 kts 296°
2026-04-27 17:14 53.70837 28.18455 3034 ft 109 kts 296°
2026-04-27 17:14 53.71080 28.17243 3041 ft 109 kts 297°
2026-04-27 17:15 53.71322 28.16023 3040 ft 109 kts 296°
2026-04-27 17:15 53.71566 28.14806 3040 ft 110 kts 297°
2026-04-27 17:15 53.71810 28.13589 3036 ft 109 kts 297°
2026-04-27 17:15 53.72053 28.12367 3039 ft 110 kts 297°
2026-04-27 17:16 53.72291 28.11146 3038 ft 110 kts 297°
2026-04-27 17:16 53.72524 28.09930 3038 ft 108 kts 297°
2026-04-27 17:16 53.72759 28.08724 3038 ft 108 kts 297°
2026-04-27 17:16 53.72993 28.07522 3038 ft 107 kts 296°
2026-04-27 17:17 53.73223 28.06347 3041 ft 107 kts 297°
2026-04-27 17:17 53.73462 28.05141 3044 ft 107 kts 297°
2026-04-27 17:17 53.73697 28.03945 3037 ft 107 kts 296°
2026-04-27 17:18 53.74169 28.01553 3038 ft 107 kts 296°
2026-04-27 17:18 53.74402 28.00375 3036 ft 107 kts 296°
2026-04-27 17:18 53.74671 27.99181 3039 ft 105 kts 303°
2026-04-27 17:18 53.75001 27.98117 3040 ft 104 kts 304°
2026-04-27 17:19 53.75348 27.97016 3039 ft 104 kts 304°
2026-04-27 17:19 53.75688 27.95935 3041 ft 104 kts 304°
2026-04-27 17:19 53.76031 27.94854 3041 ft 104 kts 305°
2026-04-27 17:19 53.76370 27.93777 3041 ft 103 kts 305°
2026-04-27 17:20 53.76706 27.92700 3038 ft 103 kts 305°
2026-04-27 17:20 53.77037 27.91635 3047 ft 103 kts 304°
2026-04-27 17:20 53.77381 27.90564 3036 ft 104 kts 305°
2026-04-27 17:20 53.77718 27.89492 3039 ft 103 kts 304°
2026-04-27 17:21 53.78055 27.88420 3041 ft 103 kts 304°
2026-04-27 17:21 53.78389 27.87356 3043 ft 103 kts 304°
2026-04-27 17:21 53.78726 27.86294 3040 ft 102 kts 304°
2026-04-27 17:21 53.79068 27.85232 3038 ft 103 kts 304°
2026-04-27 17:22 53.79412 27.84165 3036 ft 104 kts 304°
2026-04-27 17:22 53.79759 27.83091 3043 ft 104 kts 304°
2026-04-27 17:22 53.80110 27.82011 3040 ft 105 kts 304°
2026-04-27 17:22 53.80462 27.80931 3040 ft 104 kts 304°
2026-04-27 17:23 53.80813 27.79854 3036 ft 104 kts 304°
2026-04-27 17:23 53.81163 27.78784 3043 ft 104 kts 304°
2026-04-27 17:23 53.81509 27.77721 3047 ft 102 kts 304°
2026-04-27 17:23 53.81856 27.76659 3043 ft 104 kts 304°
2026-04-27 17:24 53.82209 27.75583 3048 ft 105 kts 304°
2026-04-27 17:24 53.82563 27.74505 3047 ft 104 kts 305°
2026-04-27 17:24 53.82929 27.73436 3047 ft 104 kts 310°
2026-04-27 17:24 53.83397 27.72506 3040 ft 104 kts 315°
2026-04-27 17:25 53.83880 27.71593 2830 ft 102 kts 316°
2026-04-27 17:25 53.84345 27.70713 2620 ft 99 kts 316°
2026-04-27 17:25 53.84796 27.69856 2396 ft 97 kts 316°
2026-04-27 17:25 53.85396 27.69428 2190 ft 98 kts 354°
2026-04-27 17:26 53.86078 27.69463 2011 ft 98 kts 353°
2026-04-27 17:26 53.86759 27.69452 1825 ft 99 kts 353°
2026-04-27 17:26 53.87405 27.69486 1736 ft 86 kts 354°
2026-04-27 17:26 53.87979 27.69512 1655 ft 80 kts 354°
2026-04-27 17:27 53.88552 27.69576 1588 ft 84 kts 359°
2026-04-27 17:27 53.89111 27.69758 1465 ft 78 kts
2026-04-27 17:27 53.89610 27.69981 1292 ft 68 kts
2026-04-27 17:27 53.90047 27.70186 1081 ft 63 kts
2026-04-27 17:28 53.90461 27.70414 950 ft 62 kts
2026-04-27 17:28 53.90856 27.70608 857 ft 56 kts
2026-04-27 17:28 53.91539 27.70958 784 ft 58 kts 16°
2026-04-27 17:29 53.91897 27.71240 963 ft 57 kts 17°
2026-04-27 17:29 53.92251 27.71533 1095 ft 58 kts 13°
2026-04-27 17:29 53.92610 27.71771 1234 ft 59 kts 12°
2026-04-27 17:29 53.93001 27.72045 1375 ft 65 kts
2026-04-27 17:30 53.93397 27.72468 1645 ft 86 kts 59°
2026-04-27 17:30 53.92787 27.74922 1730 ft 129 kts 111°
2026-04-27 17:30 53.92437 27.76298 1709 ft 128 kts 99°
2026-04-27 17:31 53.91892 27.77465 1687 ft 131 kts 164°
2026-04-27 17:31 53.91054 27.77301 1682 ft 118 kts 207°
2026-04-27 17:31 53.90299 27.76798 1722 ft 115 kts 213°
2026-04-27 17:31 53.89558 27.76240 1700 ft 118 kts 216°
2026-04-27 17:32 53.88837 27.75597 1723 ft 116 kts 221°
2026-04-27 17:32 53.87396 27.74238 1695 ft 120 kts 218°
2026-04-27 17:32 53.86739 27.73469 1684 ft 104 kts 247°
2026-04-27 17:33 53.86750 27.72513 1703 ft 77 kts 308°
2026-04-27 17:33 53.87052 27.71756 1622 ft 81 kts 296°
2026-04-27 17:33 53.87246 27.70892 1642 ft 76 kts 301°
2026-04-27 17:33 53.87444 27.70061 1595 ft 76 kts 303°
2026-04-27 17:34 53.87790 27.69444 1594 ft 72 kts 342°
2026-04-27 17:34 53.88298 27.69538 1620 ft 72 kts
2026-04-27 17:34 53.88770 27.69669 1550 ft 69 kts 360°
2026-04-27 17:34 53.89255 27.69833 1419 ft 72 kts
2026-04-27 17:35 53.89578 27.69980 1343 ft 74 kts
2026-04-27 17:35 53.90235 27.70292 1076 ft 74 kts
2026-04-27 17:35 53.90706 27.70540 903 ft 65 kts
2026-04-27 17:35 53.91116 27.70746 792 ft 62 kts
2026-04-27 17:36 53.91448 27.70915 783 ft 42 kts 17°
2026-04-27 17:36 53.91810 27.71156 876 ft 58 kts 14°
2026-04-27 17:36 53.92192 27.71482 1044 ft 63 kts 11°
2026-04-27 17:36 53.92622 27.71695 1181 ft 67 kts
2026-04-27 17:37 53.93065 27.71813 1430 ft 63 kts 354°
2026-04-27 17:37 53.93519 27.72060 1564 ft 82 kts 35°
2026-04-27 17:37 53.93595 27.73133 1672 ft 109 kts 102°
2026-04-27 17:37 53.93343 27.74384 1857 ft 117 kts 100°
2026-04-27 17:38 53.93101 27.75678 1893 ft 117 kts 97°
2026-04-27 17:38 53.92802 27.77002 1909 ft 121 kts 104°
2026-04-27 17:38 53.92394 27.78342 1761 ft 138 kts 135°
2026-04-27 17:38 53.91502 27.78679 1680 ft 131 kts 198°
2026-04-27 17:39 53.90745 27.78090 1721 ft 118 kts 219°
2026-04-27 17:39 53.90030 27.77370 1678 ft 117 kts 222°
2026-04-27 17:39 53.89320 27.76714 1706 ft 118 kts 208°
2026-04-27 17:39 53.88555 27.76232 1727 ft 118 kts 211°
2026-04-27 17:40 53.87794 27.75685 1726 ft 121 kts 210°
2026-04-27 17:40 53.87001 27.75166 1702 ft 122 kts 212°
2026-04-27 17:40 53.86528 27.74295 1661 ft 94 kts 288°
2026-04-27 17:40 53.86746 27.73263 1599 ft 93 kts 299°
2026-04-27 17:41 53.87081 27.72322 1601 ft 90 kts 309°
2026-04-27 17:41 53.87390 27.71425 1605 ft 89 kts 313°
2026-04-27 17:41 53.87909 27.70756 1535 ft 95 kts 328°
2026-04-27 17:41 53.88428 27.70215 1487 ft 69 kts 330°
2026-04-27 17:42 53.88803 27.69850 1365 ft 57 kts 332°
2026-04-27 17:42 53.89220 27.69790 1203 ft 64 kts
2026-04-27 17:42 53.89638 27.69994 1174 ft 63 kts
2026-04-27 17:42 53.90089 27.70217 1089 ft 72 kts
2026-04-27 17:43 53.90559 27.70466 971 ft 69 kts 11°
2026-04-27 17:43 53.91009 27.70694 828 ft 66 kts
2026-04-27 17:43 53.91363 27.70861 779 ft 39 kts
2026-04-27 17:43 53.91489 27.70925 780 ft 14 kts 28°
2026-04-27 17:44 53.91614 27.71003 783 ft 9 kts 12°
2026-04-27 17:44 53.91672 27.71010 784 ft 6 kts 322°
2026-04-27 17:44 53.91695 27.70924 781 ft 10 kts 283°
2026-04-27 17:44 53.91699 27.70815 776 ft 9 kts 222°
2026-04-27 17:45 53.91647 27.70779 774 ft 19 kts 204°
2026-04-27 17:45 53.91559 27.70730 775 ft 11 kts 198°
2026-04-27 17:45 53.91465 27.70671 774 ft 16 kts 198°
2026-04-27 17:45 53.91334 27.70661 776 ft 13 kts 121°
2026-04-27 17:46 53.91316 27.70732 777 ft 9 kts 110°
2026-04-27 17:46 53.91285 27.70834 778 ft 7 kts 184°
2026-04-27 17:46 53.91178 27.70764 778 ft 17 kts 199°
2026-04-27 17:46 53.91065 27.70705 778 ft 13 kts 199°
2026-04-27 17:47 53.91051 27.70636 779 ft 12 kts 287°
2026-04-27 17:47 53.91067 27.70551 781 ft 14 kts 284°
2026-04-27 17:47 53.91005 27.70449 776 ft 13 kts 199°
2026-04-27 17:47 53.90943 27.70413 770 ft 6 kts 184°
2026-04-27 17:48 53.90913 27.70415 768 ft 0 kts 130°
2026-04-27 17:48 53.90904 27.70440 768 ft 1 kts 112°
2026-04-27 17:48 53.90905 27.70448 769 ft 0 kts 31°
2026-04-27 17:48 53.90908 27.70448 769 ft 0 kts 329°
2026-04-27 17:49 53.90909 27.70443 769 ft 0 kts 286°
2026-04-27 17:50 53.90909 27.70442 769 ft 0 kts 288°
2026-04-27 17:51 53.90909 27.70440 769 ft 0 kts 286°
2026-04-27 17:52 53.90909 27.70441 769 ft 0 kts 286°
2026-04-27 18:01 53.90909 27.70442 764 ft 0 kts 285°
2026-04-27 18:08 53.90909 27.70443 763 ft 0 kts 284°
2026-04-27 18:16 53.90909 27.70444 763 ft 0 kts 283°
2026-04-27 18:25 53.90909 27.70445 767 ft 0 kts 282°
2026-04-27 18:33 53.90909 27.70446 769 ft 0 kts 281°
2026-04-27 18:40 53.90909 27.70447 768 ft 0 kts 280°